Weather History for Avoca, PA

Change the Weather History Date:

Wednesday, June 12, 2013

  Actual Average Record
Temperature  
Mean Temperature 68 °F 66 °F  
Max Temperature 76 °F 77 °F 91 °F (1949)
Min Temperature 59 °F 56 °F 40 °F (1980)
Degree Days  
Heating Degree Days 0 2  
Month to date heating degree days 13 35  
Since 1 June heating degree days 13 35  
Since 1 July heating degree days 5822 6236  
Cooling Degree Days 3 3  
Month to date cooling degree days 30 32  
Year to date cooling degree days 94 69  
Since 1 June cooling degree days 30 32  
Growing Degree Days 17 (Base 50)    
Moisture  
Dew Point 53 °F    
Average Humidity 61    
Maximum Humidity 78    
Minimum Humidity 43    
Precipitation  
Precipitation 0.00 in 0.14 in 1.92 in (1903)
Month to date precipitation 1.87 1.67  
Year to date precipitation 11.64 15.47  
Sea Level Pressure  
Sea Level Pressure 29.83 in    
Wind  
Wind Speed 8 mph (NNW)    
Max Wind Speed 17 mph    
Max Gust Speed 25 mph    
Visibility 10 miles    
Events      
T = Trace of Precipitation, MM = Missing Value Source: NWS Daily Summary

Daily Weather History Graph

Daily Weather History Graph

Search for Another Location

Airport:

Trip Planner

Search our weather history database for the weather conditions in past years. The results will help you decide how hot, cold, wet, or windy it might be!

Date:

Astronomy

Jun. 12, 2013 Rise Set
Actual Time 5:29 AM EDT 8:36 PM EDT
Civil Twilight 4:55 AM EDT 9:10 PM EDT
Nautical Twilight 4:12 AM EDT 9:53 PM EDT
Astronomical Twilight 3:20 AM EDT 10:45 PM EDT
Moon 9:08 AM EDT (6/12) 11:09 PM EDT (6/12)
Length of Visible Light 16h 15m
Length of Day
15h 07m
Waxing Crescent, 14% of the Moon is Illuminated
Jun 12
Waxing Crescent
Jun 16
First Quarter
Jun 23
Full
Jun 30
Last Quarter
Jul 8
New

Hourly Weather History & Observations

Time (EDT) Temp. Dew Point Humidity Pressure Visibility Wind Dir Wind Speed Gust Speed Precip Events Conditions
12:54 AM 66.0 °F 57.9 °F 75% 29.76 in 10.0 mi WSW 11.5 mph - N/A   Overcast
1:54 AM 64.9 °F 57.0 °F 75% 29.76 in 10.0 mi West 6.9 mph - N/A   Overcast
2:13 AM 64.4 °F 57.2 °F 77% 29.78 in 10.0 mi West 5.8 mph - N/A   Overcast
2:54 AM 64.0 °F 55.0 °F 73% 29.76 in 10.0 mi NW 9.2 mph 18.4 mph N/A   Mostly Cloudy
3:54 AM 63.0 °F 52.0 °F 67% 29.80 in 10.0 mi NW 13.8 mph 19.6 mph N/A   Mostly Cloudy
4:54 AM 60.1 °F 51.1 °F 72% 29.82 in 10.0 mi North 8.1 mph - N/A   Partly Cloudy
5:32 AM 59.0 °F 51.8 °F 77% 29.85 in 10.0 mi Calm Calm - N/A   Mostly Cloudy
5:54 AM 60.1 °F 51.1 °F 72% 29.83 in 10.0 mi Calm Calm - N/A   Overcast
6:54 AM 60.1 °F 52.0 °F 75% 29.84 in 10.0 mi West 6.9 mph - N/A   Overcast
7:54 AM 62.1 °F 53.1 °F 72% 29.85 in 10.0 mi NW 4.6 mph - N/A   Mostly Cloudy
8:54 AM 62.1 °F 53.1 °F 72% 29.86 in 10.0 mi NNW 5.8 mph - N/A   Overcast
9:54 AM 64.9 °F 52.0 °F 63% 29.86 in 10.0 mi NNW 9.2 mph - N/A   Overcast
10:29 AM 64.4 °F 51.8 °F 64% 29.88 in 10.0 mi NW 9.2 mph - N/A   Overcast
10:54 AM 66.9 °F 52.0 °F 59% 29.86 in 10.0 mi NW 10.4 mph 16.1 mph N/A   Mostly Cloudy
11:54 AM 70.0 °F 53.1 °F 55% 29.86 in 10.0 mi NNW 12.7 mph 18.4 mph N/A   Scattered Clouds
12:54 PM 71.1 °F 52.0 °F 51% 29.87 in 10.0 mi North 16.1 mph 19.6 mph N/A   Scattered Clouds
1:54 PM 72.0 °F 53.1 °F 51% 29.86 in 10.0 mi NNE 12.7 mph 18.4 mph N/A   Scattered Clouds
2:54 PM 73.0 °F 52.0 °F 48% 29.85 in 10.0 mi North 12.7 mph 19.6 mph N/A   Partly Cloudy
3:54 PM 73.9 °F 51.1 °F 45% 29.83 in 10.0 mi North 9.2 mph - N/A   Clear
4:54 PM 75.0 °F 52.0 °F 44% 29.84 in 10.0 mi North 9.2 mph 16.1 mph N/A   Clear
5:54 PM 75.0 °F 52.0 °F 44% 29.82 in 10.0 mi North 5.8 mph - N/A   Clear
6:54 PM 73.9 °F 53.1 °F 48% 29.83 in 10.0 mi NNE 6.9 mph - N/A   Clear
7:54 PM 72.0 °F 52.0 °F 49% 29.86 in 10.0 mi NNE 3.5 mph - N/A   Clear
8:54 PM 64.9 °F 54.0 °F 68% 29.84 in 10.0 mi East 4.6 mph - N/A   Clear
9:54 PM 63.0 °F 54.0 °F 72% 29.84 in 10.0 mi East 5.8 mph - N/A   Clear
10:54 PM 62.1 °F 53.1 °F 72% 29.84 in 10.0 mi East 3.5 mph - N/A   Clear
11:54 PM 61.0 °F 53.1 °F 75% 29.84 in 10.0 mi ENE 4.6 mph - N/A   Mostly Cloudy